Regional Weather Roundup
Issued by NWS

Home | Current Version | Previous Version | Text Only | Print | Product List | Glossary Off
Versions: 1 2 3 4 5 6 7 8 9 10 11 12 13 14 15 16 17 18 19 20 21 22 23 24 25 26 27 28 29 30 31 32 33 34 35 36 37 38 39 40 41 42 43 44 45 46 47 48 49 50

000
ASUS45 KABQ 231410
RWRNM
WEATHER ROUNDUP FOR NEW MEXICO
NATIONAL WEATHER SERVICE ALBUQUERQUE NM
800 AM MDT THU OCT 23 2014

NOTE: "FAIR" MEANS FEW OR NO CLOUDS BELOW 12,000 FEET AGL WITH NO
       SIGNIFICANT WEATHER OR OBSTRUCTIONS TO VISION.

      THIS PRODUCT IS RELEASED AS TWO VERSIONS.  ONE VERSION NEAR
      THE TOP OF THE HOUR CONTAINING PRELIMINARY DATA FROM ALBUQUERQUE
      AND OTHER STATIONS.  A FINAL VERSION WITH ADDITIONAL DATA IS
      ISSUED ABOUT 10 MINUTES AFTER THE HOUR.

NMZ501-503-504-510>518-231500-
NORTHWEST PLATEAU/NORTHCENTRAL MOUNTAINS

CITY           SKY/WX    TMP DP  RH WIND       PRES   REMARKS
FARMINGTON     CLEAR     43  36  76 E7        30.26R
LOS ALAMOS     CLEAR     47  33  59 CALM      30.35R
SANTA FE       CLEAR     43  34  70 N12       30.30R
TAOS           CLEAR     34  28  80 N3        30.36R
ANGEL FIRE     FAIR      25  22  90 CALM      30.41R

$$
NMZ402-403-502-505>509-231500-
WESTCENTRAL MOUNTAINS/SOUTHWEST MOUNTAINS

CITY           SKY/WX    TMP DP  RH WIND       PRES   REMARKS
GALLUP         PTCLDY    35  33  92 CALM      30.32R
GRANTS         CLEAR     34  32  93 NW7       30.36R WCI  28
SILVER CITY    CLEAR     50  45  81 N10       30.26R

$$
NMZ407-409-411-412-231500-
SOUTHERN DESERTS

CITY           SKY/WX    TMP DP  RH WIND       PRES   REMARKS
LORDSBURG      FAIR      46  45  93 MISG      30.20R
DEMING         CLEAR     50  47  89 CALM      30.20R
LAS CRUCES     CLEAR     55  51  87 CALM      30.21R
HOLLOMAN AFB   CLEAR     51  49  93 E5        30.18S
T OR C         NOT AVBL

$$
NMZ519>523-231500-
CENTRAL VALLEYS/CENTRAL HIGHLANDS

CITY           SKY/WX    TMP DP  RH WIND       PRES   REMARKS
ALBUQUERQUE    CLEAR     53  42  66 CALM      30.28R
DOUBLE EAGLE   CLEAR     43  37  81 NW3       30.30R
MORIARTY ARPT  FAIR      35  33  94 NE3       30.31R
CLINES CORNERS CLEAR     46  40  79 NW10      30.30R
BELEN          FAIR      45  39  80 NW7       30.28R
SOCORRO        FAIR      50  46  88 NW3       30.25R

$$
NMZ524>526-539-540-231500-
SOUTHCENTRAL MOUNTAINS

CITY           SKY/WX    TMP DP  RH WIND       PRES   REMARKS
RUIDOSO        CLEAR     50  41  71 W9        30.32R

$$
NMZ527>531-231500-
NORTHEAST HIGHLANDS/NORTHEAST PLAINS

CITY           SKY/WX    TMP DP  RH WIND       PRES   REMARKS
LAS VEGAS      CLEAR     44  32  62 N7        30.29R
RATON          CLEAR     40  35  83 NE7       30.24R
CLAYTON        CLEAR     58  43  57 NW9       30.15R

$$
NMZ532>537-231500-
EASTCENTRAL PLAINS

CITY           SKY/WX    TMP DP  RH WIND       PRES   REMARKS
TUCUMCARI      CLEAR     52  50  93 W7        30.13R
CANNON AFB     CLOUDY    56  55  94 W10       30.16R FOG
CLOVIS AIRPORT PTSUNNY   57  54  88 W7        30.18R

$$
NMZ028-029-538-231500-
SOUTHEAST PLAINS

CITY           SKY/WX    TMP DP  RH WIND       PRES   REMARKS
ROSWELL        FOG       55  54  96 CALM      30.16R VSB 1/16
CARLSBAD       FOG       58  57  97 CALM      30.14R VSB 1/4
HOBBS          FOG       55  55 100 CALM      30.17R VSB 0


$$



USA.gov is the U.S. government's official web portal to all federal, state and local government web resources and services.